Flag for U.S.A. Weather past 2 weeks in Paradise, Nevada, U.S.A.

Now
51 °F

Passing clouds.


Feels Like: 49 °F
Forecast: 39 / 63 °F
Wind: 7 mph from South

Location: McCarran International Airport

Current Time: Dec 20, 2014 at 7:51:42 PM

Latest Report: Dec 20, 2014 at 6:56 PM


Visibility: 10 mi

Pressure: 30.10 "Hg

Humidity: 59%

Dew point: 37 °F

Location of ParadiseLocation

Historic Weather in Paradise — Graph

°F

Paradise temperature yesterday

Maximum temperature yesterday: 54 °F (at 12:56 PM)
Minimum temperature yesterday: 40 °F (at 4:56 AM)
Average temperature yesterday: 48 °F

Past Weeks' High & Low Weather Summary

 TemperatureHumidityPressure
High67 °F (Dec 6, 2:56 PM)86% (Dec 12, 4:56 PM)30.28 "Hg (Dec 12, 4:56 PM)
Low40 °F (Dec 14, 6:56 AM)26% (Dec 9, 2:56 PM)29.83 "Hg (Dec 12, 10:56 AM)
Average53 °F57%30.05 "Hg
* Reported Dec 5 5:56 PM — Dec 20 5:56 PM, Paradise, Weather by CustomWeather, © 2014

Note: Actual official high and low records may vary slightly from our data, if they occured in-between our weather recording intervals... More about our weather records

Advertising

Paradise weather history for previous 24 hours

 ConditionsComfort  
Time TempWeatherWind HumidityBarometerVisibility
5:56 PM
Dec 20
52 °FPartly cloudy.5 mph57%30.11 "Hg10 mi
4:56 PM53 °FPartly cloudy.6 mph55%30.08 "Hg10 mi
3:56 PM54 °FBroken clouds.6 mph53%30.09 "Hg10 mi
2:56 PM56 °FPartly sunny.No wind49%30.05 "Hg10 mi
1:56 PM55 °FBroken clouds.No wind51%30.05 "Hg10 mi
12:56 PM55 °FPartly sunny.3 mph49%30.07 "Hg10 mi
11:56 AM54 °FPartly sunny.5 mph53%30.11 "Hg10 mi
10:56 AM51 °FOvercast.No wind61%30.12 "Hg10 mi
9:56 AM50 °FOvercast.3 mph61%30.16 "Hg10 mi
8:56 AM47 °FOvercast.7 mph69%30.15 "Hg10 mi
7:56 AM44 °FOvercast.9 mph73%30.14 "Hg10 mi
6:56 AM43 °FPartly sunny.7 mph76%30.11 "Hg10 mi
5:56 AM42 °FPassing clouds.12 mph76%30.12 "Hg10 mi
4:56 AM42 °FPassing clouds.7 mph76%30.13 "Hg10 mi
3:56 AM42 °FPassing clouds.6 mph76%30.10 "Hg10 mi
2:56 AM44 °FPassing clouds.10 mph73%30.12 "Hg10 mi
1:56 AM44 °FPassing clouds.9 mph76%30.12 "Hg10 mi
12:56 AM45 °FPassing clouds.8 mph74%30.13 "Hg10 mi
11:56 PM
Dec 19
46 °FPassing clouds.7 mph71%30.13 "Hg10 mi
10:56 PM47 °FPassing clouds.8 mph71%30.14 "Hg10 mi
9:56 PM50 °FPassing clouds.8 mph66%30.15 "Hg10 mi
8:56 PM50 °FPassing clouds.7 mph68%30.14 "Hg10 mi
7:56 PM51 °FPassing clouds.7 mph66%30.13 "Hg10 mi
Weather by CustomWeather, © 2014

See weather overviewHow to use our weather pages